Zurück zum Katalog

RASSVET-3 25

AktivPO
NORAD 100091·PAYLOAD·🇷🇺 Russia

Gestartet Jul 19, 2026 von Plesetsk Cosmodrome

Loading…

Nächste Überflüge (nächste 24 Stunden)

TLE

AktuellSource: Space-Track

Epoche: Sep 14, 2026, 13:38 UTC

1 A0091U 26165J   26257.56854932 -.00042476  00000-0 -60401-3 0  9993
2 A0091  82.3018 167.9982 0007593 197.4965 162.6029 15.56504253  8933

Verfolge RASSVET-3 25 in Echtzeit mit AllMySat

Download on the App Store